Preview of NWS' New Version of Forecast
This preview is not operational and should not be used for support decisions.
Latest weather observations around

State College - University Park Airport (KUNV)

Using English Units (Switch to International System of Units)
Date/ Time (EDT) Wind (mph) Vis. (mi) Weather Sky Cond. Temp (°F) Rel. Humidity Wind Chill (°F) Heat Index (°F) Pressure Precip. (in)
Air Dwpt 6 hour Altimeter (inHg) Sea level (inHg) 1 hr 3 hr 6 hr
Max Min
Aug 18 06:53 Calm 10 Shallow Fog CLR 63 63     100%     30.04        
Aug 18 05:53 Calm 5 Fog/Mist CLR 64 64     100%     30.03        
Aug 18 05:37 Calm 2.5 Fog/Mist CLR 63 63     100%     30.03        
Aug 18 05:19 Calm 7 Partly Cloudy SCT080 63 63     100%     30.03        
Aug 18 04:56 Calm 10 Partly Cloudy SCT080 64 64     98%     30.03        
Aug 18 04:35 Calm 7 Partly Cloudy SCT070 SCT075 64 63     99%     30.03        
Aug 18 04:16 Calm 10 Clear CLR 65 64     98%     30.03        
Aug 18 03:58 Calm 10 Clear CLR 64 64     98%     30.03        
Aug 18 03:40 Calm 10 Clear CLR 64 63     98%     30.03        
Aug 18 03:35 Calm 10 Clear CLR 64 64     99%     30.03        
Aug 18 03:16 Calm 10 Clear CLR 65 64     99%     30.02        
Aug 18 02:55 Calm 5 Fog/Mist SCT100 64 64     99%     30.02        
Aug 18 02:37 Calm 10 Partly Cloudy SCT100 65 64     98%     30.02        
Aug 18 02:19 Calm 10 Clear CLR 65 64     96%     30.02        
Aug 18 01:56 Calm 10 Clear CLR 65 65     98%     30.02       0
Aug 18 01:35 Calm 10 Clear CLR 65 64     98%     30.02        
Aug 18 01:16 Calm 10 Clear CLR 66 65     95%     30.02        
Aug 18 00:58 Calm 10 Clear CLR 65 65     97%     30.02        
Aug 18 00:40 Calm 10 Clear CLR 66 65     95%     30.02        
Aug 18 00:35 NNE 3 10 Clear CLR 66 65     96%     30.02        
Aug 18 00:16 NNW 3 10 Clear CLR 66 65     95%     30.01        
Aug 17 23:55 Calm 10 Clear CLR 67 65     92%     30.01        
Aug 17 23:37 Calm 10 Partly Cloudy SCT060 SCT085 67 65     94%     30.01        
Aug 17 23:19 Calm 10 Partly Cloudy SCT065 SCT080 67 65     93%     30.01        
Aug 17 22:56 Calm 10 Partly Cloudy SCT075 67 65     94%     30.02     0  
Aug 17 22:35 Calm 10 Partly Cloudy SCT060 SCT075 SCT085 68 65     90%     30.02        
Aug 17 22:16 WSW 7 10 Partly Cloudy SCT070 SCT085 SCT110 69 64     85%     30.02        
Aug 17 21:53 WNW 6 10 Partly Cloudy SCT060 SCT095 SCT110 70 64     83%     30.01        
Aug 17 20:53 WNW 6 10 Partly Cloudy SCT060 SCT080 SCT095 70 66     88%     30.01        
Aug 17 19:53 NE 10 10 Thunderstorms SCT024 SCT040 70 64     83%     30.01        
Aug 17 18:53 WSW 3 10 Partly Cloudy SCT060 81 66     62%   83 29.99        
Aug 17 17:53 SW 7 10 Partly Cloudy SCT065 84 64     52%   86 29.98        
Aug 17 16:53 S 8 10 Partly Cloudy SCT065 84 63     48%   85 29.97        
Aug 17 15:53 SW 13 10 Partly Cloudy SCT065 SCT070 SCT110 86 63     46%   87 30        
Aug 17 14:53 WSW 11 10 Partly Cloudy SCT050 86 64     49%   88 30.01        
Aug 17 13:53 SSW 15 10 Partly Cloudy SCT050 84 64     52%   86 30.02        
Aug 17 12:53 S 9 10 Partly Cloudy SCT050 82 64     55%   84 30.05        
Aug 17 11:53 S 9 10 Partly Cloudy SCT034 SCT110 82 64     55%   84 30.05        
Aug 17 10:53 Calm 10 Partly Cloudy SCT055 79 68     70%   80 30.05        
Aug 17 09:53 Calm 8 Partly Cloudy SCT055 70 66     88%     30.04        
Aug 17 08:53 Calm 6 Fog/Mist and Patchy Fog SCT001 SCT070 66 66     100%     30.03        
Aug 17 08:40 Calm 3 Fog/Mist and Patchy Fog SCT001 SCT055 66 66     100%     30.03        
Aug 17 08:32 Calm 1 Fog/Mist and Patchy Fog SCT001 SCT055 64 64     100%     30.03        
Aug 17 08:28 Calm 0.25 Fog OVC001 64 64     100%     30.03        
Aug 17 08:10 Calm 0.12 Fog OVC001 63 63     100%     30.03        
Aug 17 07:53 Calm 0.25 Fog OVC001 63 63     100%     30.03        
Aug 17 07:02 Calm 0.12 Fog OVC001 61 61     100%     30.03        
Aug 17 06:58 Calm 0.25 Fog OVC001 61 61     100%     30.03        
Aug 17 06:53 Calm 3 Fog/Mist and Shallow Fog SCT060 SCT070 SCT090 63 63     100%     30.03        
Aug 17 05:53 Calm 5 Fog/Mist and Patchy Fog SCT060 SCT070 BKN085 63 63     100%     30.03        
Aug 17 05:37 Calm 4 Fog/Mist SCT070 SCT095 63 63     99%     30.03        
Aug 17 05:19 Calm 0.75 Fog/Mist SCT060 SCT070 BKN095 63 63     100%     30.03        
Aug 17 04:56 Calm 7 Partly Cloudy SCT075 63 63     98%     30.03        
Aug 17 04:35 Calm 10 Clear CLR 64 63     97%     30.03        
Aug 17 04:16 Calm 10 Partly Cloudy SCT060 SCT085 SCT095 65 64     98%     30.03        
Aug 17 03:58 Calm 10 Clear CLR 64 63     97%     30.03        
Aug 17 03:40 Calm 10 Clear CLR 65 64     96%     30.03        
Aug 17 03:35 Calm 10 Clear CLR 64 63     98%     30.03        
Aug 17 03:15 Calm 10 Clear CLR 64 64     98%     30.02        
Aug 17 02:55 Calm 10 Clear CLR 64 63     94%     30.03        
Aug 17 02:37 Calm 10 Clear CLR 65 63     94%     30.03        
Aug 17 02:19 Calm 10 Clear CLR 67 63     89%     30.03        
Aug 17 01:55 Calm 10 Partly Cloudy SCT070 SCT085 65 63     91%     30.02        
Aug 17 01:35 Calm 10 Partly Cloudy SCT060 SCT085 67 63     87%     30.03        
Aug 17 01:16 Calm 10 Partly Cloudy SCT060 SCT070 SCT085 67 63     87%     30.03        
Aug 17 00:58 Calm 10 Clear CLR 67 64     90%     30.03        
Aug 17 00:40 Calm 10 Partly Cloudy SCT065 SCT070 SCT090 68 64     88%     30.03        
Aug 17 00:35 Calm 10 Partly Cloudy SCT060 SCT065 SCT090 68 64     88%     30.03        
Aug 17 00:15 Calm 10 Mostly Cloudy SCT060 SCT080 BKN110 69 64     87%     30.03        
Aug 16 23:55 Calm 10 Partly Cloudy SCT060 SCT065 SCT080 69 65     88%     30.02        
Aug 16 23:37 Calm 10 Mostly Cloudy SCT060 BKN075 BKN085 69 65     85%     30.02        
Aug 16 23:19 Calm 10 Mostly Cloudy BKN060 BKN075 BKN095 71 65     84%   71 30.02        
Aug 16 22:55 Calm 10 Partly Cloudy SCT080 SCT110 70 65     84%     30.02        
Aug 16 22:35 Calm 10 Partly Cloudy SCT065 SCT075 SCT090 70 64     82%     30.02        
Aug 16 22:16 Calm 10 Partly Cloudy SCT075 SCT100 72 65     79%   72 30.02        
Aug 16 21:53 Calm 10 Clear CLR 72 64     78%   72 30.01        
Aug 16 20:53 WNW 3 10 Clear CLR 75 64     69%   76 29.99        
Aug 16 19:53 SW 3 10 Partly Cloudy SCT060 77 64     65%   77 29.98        
Aug 16 18:53 SW 5 10 Partly Cloudy SCT050 79 63     58%   79 29.98        
Aug 16 17:53 SSW 9 10 Clear   82 63     51%   83 29.98        
Aug 16 16:53 SSW 9 10 Partly Cloudy SCT050 SCT070 SCT090 82 64     55%   84 29.98        
Aug 16 15:53 SW 9 10 Partly Cloudy SCT046 SCT060 SCT075 79 66     65%   79 30        
Aug 16 14:53 S 9 10 Mostly Cloudy SCT038 BKN110 81 64     58%   82 30.01        
Aug 16 13:53 SSW 8 10 Partly Cloudy SCT038 SCT100 82 66     58%   85 30.02        
Aug 16 12:53 SSW 9 10 Partly Cloudy SCT028 79 68     70%   80 30.02        
Aug 16 11:53 S 9 10 Partly Cloudy SCT017 SCT023 SCT050 77 68     74%   78 30.04        
Aug 16 10:53 SSW 8 8 Mostly Cloudy BKN022 73 68     83%   74 30.04        
Aug 16 09:58 SW 3 7 Mostly Cloudy BKN010 BKN017 BKN025 72 68     88%   73 30.02        
Aug 16 09:53 SW 6 7 Mostly Cloudy SCT010 BKN017 BKN025 72 68     88%   73 30.02        
Aug 16 09:20 Calm 6 Fog/Mist SCT013 BKN023 BKN036 70 68     94%     30.02        
Aug 16 08:53 Calm 5 Fog/Mist BKN011 OVC019 68 66     94%     30.03        
Aug 16 07:53 Calm 5 Fog/Mist and Patchy Fog BKN011 OVC015 66 66     100%     30.02        
Aug 16 07:05 Calm 6 Fog/Mist BKN011 OVC018 66 64     94%     30.01        
Aug 16 06:53 Calm 6 Fog/Mist SCT015 OVC018 66 64     94%     30.01        
Aug 16 05:53 Calm 4 Fog/Mist OVC016 66 64     94%     29.99        
Aug 16 05:37 Calm 10 Cloudy OVC016 66 65     98%     30        
Aug 16 05:19 Calm 10 Cloudy OVC016 66 65     98%     30        
Aug 16 04:56 Calm 10 Cloudy OVC014 66 65     98%     30        
Aug 16 04:36 Calm 10 Cloudy OVC014 65 65     98%     30        
Aug 16 04:16 Calm 5 Fog/Mist OVC014 65 65     100%     30        
Aug 16 03:58 Calm 3 Fog/Mist OVC014 65 65     100%     30        
Aug 16 03:40 Calm 7 Cloudy OVC014 65 65     99%     30        
Aug 16 03:35 Calm 7 Cloudy OVC014 65 65     100%     30        
Aug 16 03:16 Calm 5 Fog/Mist OVC014 65 65     100%     30        
Aug 16 02:55 Calm 5 Fog/Mist OVC018 64 64     100%     30        
Aug 16 02:37 Calm 7 Cloudy BKN018 OVC085 63 63     100%     29.99        
Aug 16 02:19 Calm 2 Fog/Mist BKN022 BKN060 BKN070 63 63     100%     30        
Aug 16 01:55 Calm 1 Fog/Mist VV007 64 64     100%     30       0
Aug 16 01:35 Calm 10 Partly Cloudy SCT120 65 64     98%     30        
Aug 16 01:16 Calm 10 Mostly Cloudy SCT075 SCT085 BKN120 65 65     98%     30.01        
Aug 16 00:58 W 3 10 Cloudy SCT065 BKN075 OVC110 66 65     98%     30.01        
Aug 16 00:35 Calm 10 Mostly Cloudy SCT065 BKN075 BKN110 66 65     99%     30.01        
Aug 16 00:15 Calm 10 Mostly Cloudy BKN075 BKN095 BKN110 66 65     99%     30.01        
Aug 15 23:56 Calm 10 Light Rain SCT055 BKN070 OVC100 66 65     99%     30.01        
Aug 15 23:37 SSE 5 10 Cloudy BKN055 OVC110 66 65     98%     30.01        
Aug 15 23:19 Calm 10 Mostly Cloudy SCT060 BKN070 BKN100 65 65     98%     30.02        
Aug 15 22:55 Calm 10 Mostly Cloudy BKN060 BKN085 BKN120 66 65     96%     30.01     0  
Aug 15 22:35 Calm 10 Mostly Cloudy SCT065 SCT080 BKN085 67 65     93%     30.01        
Aug 15 22:16 Calm 10 Mostly Cloudy BKN075 BKN080 BKN100 66 65     96%     30.01        
Aug 15 21:53 Calm 10 Clear CLR 66 64     94%     30        
Aug 15 20:53 WSW 6 8 Thunderstorms SCT070 BKN110 68 64     88%     29.98        
Aug 15 19:53 W 5 8 Thunderstorms BKN090 70 66     88%     29.97        
Aug 15 18:53 WNW 6 8 Thunderstorms SCT011 BKN085 68 66     94%     29.97        
Aug 15 18:30 S 6 8 Thunderstorms SCT028 SCT075 BKN110 70 68     94%     29.94        
Aug 15 17:53 SSW 6 8 Thunderstorms and Light Rain SCT035 BKN070 73        %     29.95        
Aug 15 16:53 S 7 7 Thunderstorms SCT042 SCT075 79        %     29.95        
Aug 15 16:36 S 8 10 Thunderstorms SCT038 BKN050 BKN070 79        %     29.94        
Aug 15 15:53 SSE 9 10 Thunderstorms SCT038 BKN050 BKN070 81        %     29.94        
Aug 15 14:53 Calm 10 Mostly Cloudy SCT036 SCT049 BKN095 81        %     29.96        
Aug 15 13:53 Calm 8 Partly Cloudy SCT036 SCT043 SCT110 77 66     69%   78 29.98        
Aug 15 12:53 SE 6 8 Mostly Cloudy SCT020 SCT050 BKN075 77 68     74%   78 30        
Aug 15 11:53 Calm 8 Mostly Cloudy BKN020 BKN027 75 68     78%   76 30.03        
Aug 15 10:53 Calm 8 Mostly Cloudy BKN022 73 66     78%   74 30.04        
Aug 15 09:53 Calm 10 Partly Cloudy SCT015 SCT045 70 66     88%     30.03        
Aug 15 09:14 3 10 Partly Cloudy SCT015 68 64     88%     30.03        
Aug 15 08:53 3 7 Mostly Cloudy BKN015 66 66     100%     30.03        
Aug 15 08:24 Calm 6 Fog/Mist BKN015 BKN025 OVC039 66 64     94%     30.02        
Aug 15 07:53 Calm 6 Fog/Mist SCT015 BKN035 BKN090 64 63     94%     30.02        
Aug 15 06:53 Calm 7 Partly Cloudy SCT050 63 63     100%     30        
Aug 15 05:53 Calm 10 Mostly Cloudy SCT041 BKN055 63 63     100%     29.99        
Aug 15 05:35 Calm 10 Mostly Cloudy BKN043 BKN065 BKN080 63 63     99%     29.99        
Aug 15 05:17 Calm 10 Mostly Cloudy BKN043 BKN049 BKN065 63 63     98%     29.99        
Aug 15 04:59 Calm 10 Partly Cloudy SCT043 SCT050 63 63     97%     29.98        
Aug 15 04:36 Calm 10 Partly Cloudy SCT049 64 63     96%     29.98        
Aug 15 04:16 Calm 10 Mostly Cloudy BKN049 64 63     97%     29.98        
Aug 15 03:56 Calm 5 Fog/Mist SCT018 SCT028 BKN049 63 63     100%     29.98        
Aug 15 03:38 Calm 10 Mostly Cloudy SCT018 SCT028 BKN095 63 63     99%     29.99        
Aug 15 03:20 Calm 5 Fog/Mist CLR 63 63     99%     29.99        
Aug 15 03:15 Calm 7 Clear CLR 63 63     100%     29.99        
Aug 15 02:56 Calm 10 Clear CLR 64 63     96%     29.99        
Aug 15 02:35 Calm 10 Partly Cloudy SCT055 SCT065 SCT100 65 63     95%     29.99        
Aug 15 02:17 Calm 10 Mostly Cloudy SCT065 BKN070 64 63     98%     29.99        
Aug 15 01:59 Calm 10 Mostly Cloudy SCT055 BKN075 64 63     96%     29.99        
Aug 15 01:36 Calm 10 Mostly Cloudy SCT055 BKN075 65 64     99%     29.99        
Aug 15 01:15 Calm 10 Mostly Cloudy SCT055 BKN065 65 64     98%     29.99        
Aug 15 00:56 Calm 10 Cloudy OVC065 66 64     96%     29.99        
Aug 15 00:38 Calm 10 Cloudy SCT055 OVC065 66 64     92%     29.98        
Aug 15 00:20 Calm 10 Mostly Cloudy BKN055 BKN090 65 64     96%     29.98        
Aug 15 00:15 Calm 10 Mostly Cloudy BKN055 BKN090 65 64     96%     29.98        
Aug 14 23:56 Calm 10 Clear CLR 65 64     97%     29.98        
Aug 14 23:35 Calm 10 Clear CLR 66 63     89%     29.98        
Aug 14 23:17 Calm 10 Clear CLR 66 63     91%     29.98        
Aug 14 22:59 Calm 10 Partly Cloudy SCT075 SCT080 67 64     89%     29.97        
Aug 14 22:36 Calm 10 Mostly Cloudy BKN075 68 65     90%     29.97        
Aug 14 22:16 Calm 10 Mostly Cloudy BKN075 BKN090 69 65     88%     29.96        
Aug 14 21:53 Calm 10 Partly Cloudy SCT075 SCT110 68 64     88%     29.96        
Aug 14 20:53 Calm 10 Mostly Cloudy BKN070 BKN085 68 64     88%     29.94        
Aug 14 19:53 WNW 7 7 Rain BKN060 OVC070 75 63     65%   75 29.93        
May 15 04:55 W 6 10 Clear   61 59     92%     29.92        
May 15 04:35 W 7 10 Cloudy SCT047 BKN070 OVC110 60 59     96%              
May 15 02:15 WSW 3 10 Mostly Cloudy BKN095 62 59     91%     29.93        
May 15 01:35 WSW 5 10 Partly Cloudy SCT095 61 59     93%     29.96        
May 14 20:53 WSW 7 10 Clear CLR 66 61     83%     29.91        
May 13 23:15 N 3 10 Cloudy OVC012 54 54     97%     30.04        
May 13 04:15 N 8 4 Rain OVC003 53 53     100%     30.07        
May 13 01:35 NE 7 10 Cloudy SCT004 OVC012 56 55     96%     30.09        
May 12 01:35 ENE 3 10 Light Rain SCT026 SCT043 BKN095 49 46     92% 48   30.1   0    
May 11 23:55 NE 5 10 Cloudy SCT055 BKN100 OVC120 55 40     57%     30.09        
May 11 23:35 ENE 8 10 Cloudy BKN060 BKN075 OVC120 55 41     59%     30.08        
May 11 22:55 NNE 7 10 Mostly Cloudy SCT060 BKN090 BKN110 58 35     41%     30.1        
Jun 12 05:15 Calm 10 Clear CLR 63 59     85%     30.12        
Jun 12 01:35 WSW 6 10 Clear CLR 67 59     76%     30.09        
Notice The following observation data may not be complete
Jun 11 22:35   10 Clear            %              
Jun 11 18:53 W 13 10 Clear CLR 82 59     45%   82 30.08        
Jun 11 12:53 WSW 17 10 Clear CLR 84 57     40%   83 30.11        
Jun 11 04:15 Calm 10 Partly Cloudy SCT060 SCT070 SCT090 63 58     85%     30.09        
Jun 11 03:35 Calm 10 Clear   64 58     80%     30.08        
Jun 10 23:15 SSW 7 10 Clear CLR 69 59     69%     30.06        
Jun 10 11:53 WSW 13 10 Mostly Cloudy BKN090 BKN110 77 59     54%   77 30.03        
Jun 10 05:53 Calm 10 Mostly Cloudy BKN065 BKN100 59 55     88%     29.99        
Jun 09 14:53   10 Partly Cloudy SCT070 SCT085 75 48     38%   74 29.86        
Jun 09 04:15 SSW 3 10 Clear CLR 54 50     87%     29.8        
Jun 09 00:55 SSW 3 10 Mostly Cloudy BKN075 BKN095 58 51     77%     29.83        
Jun 08 04:15 Calm 10 Mostly Cloudy SCT060 BKN070 51 50     98%     30.04        
Jun 08 00:35 Calm 10 Clear CLR 52 51     95%     30.06        
Notice The following observation data may not be complete
Jun 07 23:35   10 Partly Cloudy SCT070          %              
Notice The following observation data may not be complete
Jun 07 22:35   10 Cloudy OVC070          %              
Jun 06 05:15 Calm 10 Cloudy OVC016 57 54     88%     29.73        
Notice The following observation data may not be complete
Jun 06 00:35   10 Cloudy OVC045          %              
Jun 05 23:35 Calm 10 Mostly Cloudy BKN120 61 58     92%     29.73        
Jun 05 22:55 N 9 10 Light Rain SCT019 BKN050 OVC080 62 59     91%     29.72        
Notice The following observation data may not be complete
Jun 05 22:35   7 Cloudy SCT025 SCT036 OVC060          %         0